QPF
0.00 0.00 0.00 0.00 0.00 0.00 0.00 0.00 0.00 0.00 0.00 0.00 0.00 0.00 0.00 0.00 0.00 0.00 0.00 0.00 0.00 0.00 0.00 0.00 0.00 0.00 0.00 0.00 0.00 0.00 0.00 0.00 0.00 0.00 0.00 0.00 0.00 0.00 0.00 0.00 0.00 0.00 0.00 0.00 0.00
0.00 0.00 0.00 0.00 0.00 0.00 0.00 0.00 0.00 0.00 0.00 0.00 0.00 0.00 0.00 0.00 0.00 0.00 0.00 0.00 0.00 0.00 0.00 0.00 0.00 0.00 0.00 0.00 0.00 0.00 0.00 0.00 0.00 0.00 0.00 0.00 0.00 0.00 0.00 0.00 0.00 0.00 0.00 0.00 0.00
0.00 0.00 0.00 0.00 0.00 0.00 0.00 0.00 0.00 0.00 0.00 0.00 0.00 0.00 0.00 0.00 0.00 0.00 0.00 0.00 0.00 0.00 0.00 0.00 0.00 0.00 0.00 0.00 0.00 0.00 0.00 0.00 0.00 0.00 0.00 0.00 0.00 0.00 0.00 0.00 0.00 0.00 0.00 0.00 0.00
0.00 0.00 0.00 0.00 0.00 0.00 0.00 0.00 0.00 0.00 0.00 0.00 0.00 0.00 0.00 0.00 0.00 0.00 0.00 0.00 0.00 0.00 0.00 0.00 0.00 0.00 0.00 0.00 0.00 0.00 0.00 0.00 0.00 0.00 0.00 0.00 0.00 0.00 0.00 0.00 0.00 0.00 0.00 0.00 0.00
0.00 0.00 0.00 0.00 0.00 0.00 0.00 0.00 0.00 0.00 0.00 0.00 0.00 0.00 0.00 0.00 0.00 0.00 0.00 0.00 0.00 0.00 0.00 0.00 0.00 0.00 0.00 0.00 0.00 0.00 0.00 0.00 0.00 0.00 0.00 0.00 0.00 0.00 0.00 0.00 0.00 0.00 0.00 0.00 0.00
0.00 0.00 0.00 0.00 0.00 0.00 0.00 0.00 0.00 0.00 0.00 0.00 0.00 0.00 0.00 0.00 0.00 0.00 0.00 0.00 0.00 0.00 0.00 0.00 0.00 0.00 0.00 0.00 0.00 0.00 0.00 0.00 0.00 0.00 0.00 0.00 0.00 0.00 0.00 0.00 0.00 0.00 0.00 0.00 0.00
0.00 0.00 0.00 0.00 0.00 0.00 0.00 0.00 0.00 0.00 0.00 0.00 0.00 0.00 0.00 0.00 0.00 0.00 0.00 0.00 0.00 0.00 0.00 0.00 0.00 0.00 0.00 0.00 0.00 0.00 0.00 0.00 0.00 0.00 0.00 0.00 0.00 0.00 0.00 0.00 0.00 0.00 0.00 0.00 0.00
0.00 0.00 0.00 0.00 0.00 0.00 0.00 0.00 0.00 0.00 0.00 0.00 0.00 0.00 0.00 0.00 0.00 0.00 0.00 0.00 0.00 0.00 0.00 0.00 0.00 0.00 0.00 0.00 0.00 0.00 0.00 0.00 0.00 0.00 0.00 0.00 0.00 0.00 0.00 0.00 0.00 0.00 0.00 0.00 0.00
0.00 0.00 0.00 0.00 0.00 0.00 0.00 0.00 0.01 0.00 0.00 0.00 0.00 0.00 0.00 0.00 0.00 0.00 0.00 0.00 0.00 0.00 0.00 0.00 0.00 0.00 0.00 0.00 0.00 0.00 0.00 0.00 0.00 0.00 0.00 0.00 0.00 0.00 0.00 0.00 0.00 0.00 0.00 0.00 0.00
0.00 0.00 0.00 0.00 0.00 0.00 0.00 0.02 0.07 0.04 0.01 0.01 0.00 0.00 0.00 0.00 0.00 0.00 0.00 0.00 0.00 0.00 0.00 0.00 0.00 0.00 0.00 0.00 0.00 0.00 0.00 0.00 0.00 0.00 0.00 0.00 0.00 0.00 0.00 0.00 0.00 0.00 0.00 0.00 0.00
0.01 0.00 0.00 0.01 0.00 0.00 0.00 0.19 0.39 0.23 0.03 0.01 0.00 0.00 0.00 0.00 0.00 0.00 0.00 0.00 0.00 0.00 0.00 0.00 0.00 0.00 0.00 0.00 0.00 0.00 0.00 0.00 0.00 0.00 0.00 0.00 0.00 0.00 0.00 0.00 0.00 0.00 0.00 0.00 0.00
0.00 0.00 0.00 0.01 0.01 0.00 0.01 0.13 0.11 0.03 0.02 0.00 0.00 0.00 0.00 0.00 0.00 0.00 0.00 0.00 0.00 0.00 0.00 0.00 0.00 0.00 0.00 0.00 0.00 0.00 0.00 0.00 0.00 0.00 0.00 0.00 0.00 0.00 0.00 0.00 0.00 0.00 0.00 0.00 0.00
0.00 0.00 0.01 0.03 0.04 0.03 0.01 0.05 0.05 0.04 0.02 0.00 0.00 0.00 0.00 0.00 0.00 0.00 0.00 0.00 0.00 0.00 0.00 0.00 0.00 0.00 0.00 0.00 0.00 0.00 0.00 0.00 0.00 0.00 0.00 0.00 0.00 0.00 0.00 0.00 0.00 0.00 0.00 0.00 0.00
0.00 0.00 0.01 0.07 0.07 0.02 0.01 0.01 0.06 0.14 0.18 0.02 0.00 0.00 0.00 0.00 0.00 0.00 0.00 0.00 0.00 0.00 0.00 0.00 0.00 0.00 0.00 0.00 0.00 0.00 0.00 0.00 0.00 0.00 0.00 0.00 0.00 0.00 0.00 0.00 0.00 0.00 0.00 0.00 0.00
0.01 0.01 0.02 0.03 0.02 0.01 0.00 0.01 0.04 0.39 0.49 0.04 0.00 0.00 0.00 0.00 0.00 0.00 0.00 0.00 0.00 0.00 0.00 0.00 0.00 0.00 0.00 0.00 0.00 0.00 0.00 0.00 0.00 0.00 0.00 0.00 0.00 0.00 0.00 0.00 0.00 0.00 0.00 0.00 0.00
0.01 0.02 0.03 0.06 0.04 0.00 0.00 0.02 0.29 0.68 0.58 0.01 0.00 0.00 0.00 0.00 0.00 0.00 0.00 0.00 0.00 0.00 0.00 0.00 0.00 0.00 0.00 0.00 0.00 0.00 0.00 0.00 0.00 0.00 0.00 0.00 0.00 0.00 0.00 0.00 0.00 0.00 0.00 0.00 0.00
0.03 0.03 0.04 0.04 0.01 0.01 0.03 0.11 0.47 0.90 0.30 0.01 0.00 0.00 0.00 0.00 0.00 0.00 0.00 0.00 0.00 0.00 0.00 0.00 0.00 0.00 0.00 0.00 0.00 0.00 0.00 0.00 0.00 0.00 0.00 0.00 0.00 0.00 0.00 0.00 0.00 0.00 0.00 0.00 0.00
0.04 0.05 0.06 0.02 0.02 0.03 0.10 0.20 0.53 0.52 0.24 0.01 0.00 0.00 0.00 0.00 0.00 0.00 0.00 0.00 0.00 0.00 0.00 0.00 0.00 0.00 0.00 0.00 0.00 0.00 0.00 0.00 0.00 0.00 0.00 0.00 0.00 0.00 0.00 0.00 0.00 0.00 0.00 0.00 0.00
0.09 0.12 0.12 0.04 0.04 0.05 0.09 0.41 0.38 0.28 0.11 0.01 0.00 0.00 0.00 0.00 0.00 0.00 0.00 0.00 0.00 0.00 0.00 0.00 0.00 0.00 0.00 0.00 0.00 0.00 0.00 0.00 0.00 0.00 0.00 0.00 0.00 0.00 0.00 0.00 0.00 0.00 0.00 0.00 0.00
0.09 0.21 0.24 0.03 0.02 0.07 0.25 0.37 0.29 0.15 0.02 0.00 0.01 0.00 0.00 0.00 0.00 0.00 0.00 0.00 0.00 0.00 0.00 0.00 0.00 0.00 0.00 0.00 0.00 0.00 0.00 0.00 0.00 0.00 0.00 0.00 0.00 0.00 0.00 0.00 0.00 0.00 0.00 0.00 0.00
0.13 0.28 0.27 0.09 0.07 0.22 0.49 0.36 0.14 0.08 0.01 0.02 0.03 0.00 0.00 0.00 0.00 0.00 0.00 0.00 0.00 0.00 0.00 0.00 0.00 0.00 0.00 0.00 0.00 0.00 0.00 0.00 0.00 0.00 0.00 0.00 0.00 0.00 0.00 0.00 0.00 0.00 0.00 0.00 0.00
0.23 0.35 0.20 0.20 0.36 0.44 0.32 0.23 0.06 0.02 0.04 0.07 0.05 0.01 0.00 0.00 0.00 0.00 0.00 0.00 0.00 0.00 0.00 0.00 0.00 0.00 0.00 0.00 0.00 0.00 0.00 0.00 0.00 0.00 0.00 0.00 0.00 0.00 0.00 0.00 0.00 0.00 0.00 0.00 0.00
0.32 0.25 0.16 0.11 0.36 0.30 0.09 0.07 0.04 0.00 0.04 0.21 0.08 0.01 0.00 0.00 0.00 0.00 0.00 0.00 0.00 0.00 0.00 0.00 0.00 0.00 0.00 0.00 0.00 0.00 0.00 0.00 0.00 0.00 0.00 0.00 0.00 0.00 0.00 0.00 0.00 0.00 0.00 0.00 0.00
0.37 0.24 0.26 0.18 0.14 0.08 0.04 0.04 0.01 0.01 0.03 0.11 0.11 0.00 0.00 0.00 0.00 0.00 0.00 0.00 0.00 0.00 0.00 0.00 0.00 0.00 0.00 0.00 0.00 0.00 0.00 0.00 0.00 0.00 0.00 0.00 0.00 0.00 0.00 0.00 0.00 0.00 0.00 0.00 0.00
0.39 0.23 0.12 0.13 0.09 0.02 0.02 0.02 0.01 0.01 0.04 0.07 0.10 0.05 0.02 0.01 0.00 0.00 0.00 0.00 0.00 0.00 0.00 0.00 0.00 0.00 0.00 0.00 0.00 0.00 0.00 0.00 0.00 0.00 0.00 0.00 0.00 0.00 0.00 0.00 0.00 0.00 0.00 0.00 0.00
0.21 0.20 0.03 0.00 0.00 0.01 0.04 0.02 0.01 0.01 0.06 0.10 0.09 0.04 0.02 0.02 0.00 0.00 0.00 0.00 0.00 0.00 0.00 0.00 0.00 0.00 0.00 0.00 0.00 0.00 0.00 0.00 0.00 0.00 0.00 0.00 0.00 0.00 0.00 0.00 0.00 0.00 0.00 0.00 0.00
0.05 0.04 0.01 0.01 0.02 0.04 0.05 0.04 0.01 0.02 0.05 0.04 0.02 0.01 0.00 0.00 0.00 0.00 0.00 0.00 0.00 0.00 0.00 0.00 0.00 0.00 0.00 0.00 0.00 0.00 0.00 0.00 0.00 0.00 0.00 0.00 0.00 0.00 0.00 0.00 0.00 0.00 0.00 0.00 0.00
MSLP
1018.25 1018.28 1018.12 1017.70 1017.44 1017.78 1017.93 1017.93 1018.04 1018.09 1018.03 1018.00 1017.90 1017.68 1017.34 1016.84 1015.76 1014.23 1013.45 1013.44 1013.31 1013.39 1013.35 1012.15 1011.64 1011.22 1010.90 1010.19 1010.08 1009.55 1007.62 1005.92 1005.91 1006.38 1006.69 1007.57 1007.22 1007.64 1007.66 1006.97 1007.12 1007.26 1007.20 1007.97 1008.71
1018.05 1018.01 1017.95 1017.90 1017.53 1017.33 1017.55 1017.73 1017.73 1017.83 1017.93 1017.80 1017.75 1017.63 1017.26 1016.78 1015.47 1013.74 1013.40 1013.48 1013.41 1013.38 1012.57 1011.53 1010.85 1010.70 1009.90 1009.72 1009.63 1008.83 1007.53 1006.51 1007.34 1007.45 1007.44 1007.62 1007.69 1007.88 1007.35 1006.86 1006.82 1007.18 1007.81 1008.31 1008.65
1017.81 1017.73 1017.71 1017.73 1017.53 1017.34 1017.16 1017.27 1017.49 1017.61 1017.73 1017.71 1017.59 1017.55 1017.18 1016.50 1014.62 1012.67 1013.41 1013.41 1013.37 1013.09 1012.26 1011.67 1011.10 1010.46 1009.64 1009.48 1009.23 1008.82 1007.75 1007.84 1008.04 1008.44 1008.30 1007.76 1007.72 1008.09 1007.54 1006.73 1006.41 1006.66 1007.01 1007.55 1008.08
1017.44 1017.37 1017.40 1017.50 1017.45 1017.34 1016.98 1016.91 1017.09 1017.28 1017.50 1017.62 1017.49 1017.41 1017.02 1015.95 1013.64 1013.03 1013.58 1013.45 1013.26 1012.69 1012.01 1011.44 1010.81 1010.09 1009.46 1009.01 1009.09 1008.91 1008.71 1008.76 1008.48 1008.92 1008.59 1008.00 1007.76 1007.80 1007.55 1006.69 1006.78 1006.85 1007.03 1007.09 1007.43
1017.00 1017.05 1017.05 1017.19 1017.24 1017.10 1016.84 1016.66 1016.55 1016.95 1017.23 1017.45 1017.49 1017.29 1016.50 1015.10 1013.13 1013.10 1013.43 1013.03 1012.64 1012.32 1011.53 1011.15 1010.56 1009.92 1009.28 1009.17 1009.45 1009.14 1008.79 1009.15 1009.02 1009.11 1008.77 1008.45 1007.93 1007.78 1006.94 1006.84 1006.88 1006.84 1007.04 1006.98 1006.87
1016.38 1016.49 1016.60 1016.79 1016.93 1016.83 1016.96 1016.46 1016.29 1016.53 1016.88 1017.21 1017.50 1017.31 1016.26 1014.47 1012.91 1013.26 1013.19 1012.74 1012.39 1012.00 1011.51 1011.17 1010.61 1010.31 1009.79 1009.66 1009.59 1009.45 1009.32 1008.97 1008.92 1008.60 1008.46 1008.41 1007.51 1007.84 1005.92 1005.93 1006.33 1006.53 1006.35 1006.23 1006.26
1015.79 1015.79 1015.97 1016.23 1016.51 1016.64 1016.72 1016.53 1016.32 1016.18 1016.53 1016.93 1017.35 1016.88 1015.49 1013.20 1013.07 1013.14 1013.22 1013.01 1012.85 1012.41 1011.62 1011.46 1011.23 1010.79 1010.12 1009.85 1010.29 1009.91 1009.27 1008.30 1008.09 1008.06 1007.94 1008.09 1007.21 1006.33 1005.89 1005.52 1005.83 1005.78 1005.79 1005.85 1005.97
1014.97 1015.20 1015.39 1015.71 1016.11 1016.37 1016.50 1016.39 1016.19 1015.98 1016.17 1016.76 1017.17 1016.62 1014.15 1013.26 1013.18 1012.97 1012.96 1012.83 1012.74 1012.55 1012.25 1011.93 1011.59 1011.00 1010.49 1010.64 1010.18 1009.46 1009.12 1007.43 1007.17 1007.71 1007.71 1007.83 1005.61 1005.18 1005.57 1005.73 1005.45 1005.45 1005.41 1005.67 1005.51
1014.02 1014.40 1014.78 1015.12 1015.54 1015.95 1016.22 1016.13 1016.06 1015.79 1016.01 1016.71 1017.05 1016.22 1013.46 1013.18 1013.00 1012.48 1012.51 1012.32 1012.10 1012.34 1012.12 1012.22 1011.59 1010.78 1010.71 1009.89 1009.21 1008.85 1007.31 1006.93 1006.70 1007.29 1007.10 1007.14 1005.41 1005.54 1006.05 1005.96 1005.80 1005.44 1004.96 1004.84 1004.90
1013.19 1013.43 1013.93 1014.46 1015.01 1015.56 1015.92 1016.05 1015.72 1015.62 1015.84 1016.81 1016.54 1016.22 1013.24 1011.76 1011.63 1011.64 1011.69 1012.23 1011.95 1011.95 1011.90 1011.72 1011.11 1010.34 1009.74 1008.88 1007.36 1006.94 1007.14 1006.55 1006.36 1006.79 1007.10 1006.28 1005.61 1005.51 1005.57 1005.56 1005.26 1004.83 1004.38 1004.17 1003.96
1012.36 1012.56 1013.03 1013.70 1014.49 1015.20 1016.03 1016.23 1015.71 1014.65 1014.14 1012.49 1012.82 1012.32 1011.00 1011.24 1011.70 1011.28 1011.35 1011.81 1011.87 1011.59 1010.97 1010.92 1010.29 1008.63 1008.19 1008.39 1007.65 1007.73 1007.10 1006.32 1006.02 1006.82 1007.46 1006.13 1005.04 1004.73 1004.91 1004.92 1004.43 1003.75 1003.45 1003.12 1002.86
1011.34 1011.44 1012.03 1012.93 1013.81 1014.71 1015.23 1014.33 1012.22 1012.23 1012.93 1012.59 1011.71 1011.74 1010.91 1011.50 1010.84 1010.59 1011.14 1010.73 1010.81 1010.12 1010.52 1010.63 1008.56 1008.29 1008.47 1008.41 1008.45 1008.09 1007.42 1006.50 1006.19 1006.53 1007.14 1005.65 1004.11 1004.20 1004.16 1003.91 1003.47 1002.73 1002.25 1002.05 1001.99
1009.98 1010.41 1011.04 1012.22 1013.21 1014.10 1013.46 1011.79 1012.34 1012.44 1012.22 1010.97 1011.02 1010.83 1010.86 1011.42 1010.23 1009.51 1010.22 1009.60 1009.42 1009.40 1008.86 1008.43 1007.47 1008.17 1008.55 1008.69 1008.54 1007.97 1007.44 1006.87 1006.64 1006.42 1006.32 1005.25 1003.52 1002.68 1002.47 1002.72 1002.18 1001.73 1001.44 1001.36 1001.45
1008.59 1009.32 1010.28 1011.62 1013.29 1012.68 1011.68 1011.79 1012.61 1013.37 1012.04 1009.39 1009.29 1009.14 1009.94 1010.14 1009.71 1009.14 1009.21 1009.01 1008.91 1007.92 1008.39 1008.33 1007.95 1008.12 1008.17 1007.98 1008.17 1007.36 1007.59 1007.82 1007.32 1006.99 1005.16 1005.74 1002.56 1001.82 1001.79 1001.53 1001.14 1000.70 1000.55 1000.78 1001.26
1007.16 1008.17 1009.16 1009.99 1010.34 1010.57 1009.64 1011.72 1012.84 1013.63 1009.81 1006.88 1006.35 1006.98 1007.77 1008.07 1007.15 1007.90 1008.60 1008.60 1007.54 1007.60 1007.92 1006.23 1007.28 1007.28 1007.66 1006.92 1007.77 1007.53 1008.00 1008.01 1007.55 1006.71 1005.92 1004.83 1004.27 1000.36 1000.96 1000.64 1000.18 999.97 999.91 1000.19 1000.82
1006.08 1007.01 1008.22 1009.47 1009.59 1008.57 1010.46 1011.70 1013.00 1012.58 1007.46 1004.67 1004.04 1004.78 1006.14 1006.71 1006.80 1006.87 1007.61 1008.06 1007.76 1007.52 1007.51 1006.61 1007.22 1007.10 1006.29 1006.98 1007.72 1007.97 1008.37 1008.30 1007.92 1006.96 1004.80 1003.23 1002.69 1000.15 999.59 999.48 999.67 999.53 999.55 1000.07 1000.68
1005.28 1006.00 1006.95 1007.71 1006.28 1008.59 1009.91 1011.37 1011.60 1008.77 1007.10 1004.37 1003.14 1003.82 1003.54 1004.25 1005.67 1005.89 1006.58 1006.51 1005.77 1006.17 1005.70 1006.19 1006.16 1006.81 1006.90 1006.65 1007.49 1007.58 1007.35 1006.87 1006.53 1005.72 1002.20 1001.73 1000.83 999.91 999.62 999.57 999.52 999.59 999.59 1000.00 1000.95
1004.54 1005.22 1005.81 1005.89 1007.33 1008.64 1009.82 1010.41 1008.53 1007.05 1006.28 1003.75 1003.18 1003.37 1002.61 1002.46 1003.78 1004.32 1005.15 1005.19 1005.32 1004.39 1003.96 1004.34 1004.88 1005.45 1005.65 1005.10 1005.42 1005.91 1005.74 1004.29 1003.85 1002.84 1001.51 1001.83 999.67 998.77 999.05 999.31 999.55 999.64 1000.07 1000.29 1001.42
1004.19 1004.75 1005.24 1005.71 1007.09 1008.09 1008.73 1007.74 1006.48 1005.21 1004.99 1004.53 1002.73 1002.21 1001.98 1001.55 1001.48 1003.01 1002.75 1002.44 1002.40 1002.88 1002.82 1002.67 1002.52 1003.45 1004.43 1004.96 1004.89 1005.22 1004.67 1004.65 1004.41 1003.36 1002.54 1000.25 998.85 998.58 999.29 999.38 999.67 999.57 999.86 1000.33 1001.12
1003.03 1003.85 1004.08 1005.15 1006.54 1007.10 1007.66 1006.61 1006.15 1005.13 1004.55 1003.90 1002.35 1001.11 1000.12 999.59 999.82 1000.62 1000.71 1000.57 1001.22 1001.77 1002.08 1001.72 1002.67 1003.23 1004.17 1004.95 1004.36 1003.74 1004.48 1005.10 1004.65 1003.19 1001.65 998.89 998.32 997.59 998.58 998.96 999.31 999.35 999.84 1000.24 1001.16
1002.75 1003.18 1002.98 1004.38 1005.88 1006.01 1005.55 1005.90 1005.70 1005.12 1004.83 1004.24 1002.92 1000.56 999.41 998.91 998.37 998.40 997.75 997.93 999.78 1000.71 1001.70 1001.69 1002.01 1003.20 1003.47 1002.70 1002.51 1003.53 1003.36 1003.26 1003.07 1002.52 1000.90 998.96 997.61 996.76 997.64 998.07 998.54 998.96 999.44 1000.04 1001.12
1002.36 1002.78 1002.87 1002.65 1003.72 1004.29 1004.48 1005.07 1004.96 1003.88 1004.72 1004.70 1003.50 1000.90 998.84 998.56 998.44 998.04 997.23 997.33 997.78 999.17 1000.30 1000.60 1001.84 1002.20 1002.27 1002.60 1002.76 1002.27 1001.75 1001.88 1001.64 1001.10 1001.59 1000.35 996.91 997.86 998.04 998.20 998.91 999.31 999.93 1000.45 1001.10
1002.78 1003.66 1002.92 1002.42 1002.47 1003.42 1004.21 1004.22 1004.30 1003.25 1003.42 1004.47 1003.30 1001.66 999.22 997.84 998.31 997.70 997.49 997.18 997.66 998.71 999.38 1000.83 1001.21 1001.40 1001.96 1002.72 1002.60 1001.08 1000.81 1001.43 1001.52 1001.25 1000.40 1000.11 997.40 997.76 998.47 998.89 999.41 999.73 1000.10 1000.85 1001.56
1003.39 1003.27 1002.74 1002.28 1002.73 1003.16 1003.30 1002.70 1002.89 1002.94 1002.76 1003.29 1003.07 1002.22 1000.09 998.16 997.64 996.95 996.90 997.20 997.86 997.86 998.73 999.64 999.61 999.27 998.43 997.85 999.60 1000.99 1000.20 1000.43 1000.86 1001.22 999.11 998.90 997.20 997.98 998.73 998.88 999.56 1000.02 1000.45 1000.82 1001.86
1002.62 1001.86 1000.85 1001.19 1001.91 1002.25 1002.39 1002.02 1002.01 1002.00 1002.23 1002.56 1002.36 1002.12 1000.83 998.57 997.14 996.13 996.51 997.23 998.05 998.27 999.38 999.46 999.02 999.21 998.49 998.46 998.85 998.79 999.16 999.39 999.88 999.38 998.87 997.35 997.40 996.55 997.34 997.84 998.47 999.30 1000.08 1000.95 1002.07
1001.72 1000.94 1000.03 999.63 1000.70 1001.23 1001.35 1000.96 1000.78 1001.28 1001.24 1001.19 1001.78 1001.24 1000.34 998.67 996.10 995.20 995.28 996.14 996.12 997.82 998.58 998.96 998.72 999.15 999.07 999.21 998.86 998.56 998.34 998.67 998.35 997.87 998.20 997.29 996.69 996.57 997.03 997.86 998.87 999.48 1000.11 1001.03 1002.07
1000.25 999.48 998.38 999.44 999.59 1000.61 1000.26 999.60 999.35 999.91 999.98 999.91 1000.21 1000.22 998.53 997.47 995.75 994.97 995.18 995.72 995.48 996.56 997.61 998.73 999.01 999.32 999.31 999.40 999.42 999.30 998.15 996.77 997.15 997.21 997.03 996.57 995.16 996.74 996.48 997.23 998.52 999.08 999.73 1000.36 1001.39
Thickness
5606 5614 5621 5631 5641 5645 5649 5655 5659 5666 5673 5680 5687 5694 5701 5710 5723 5739 5740 5751 5756 5759 5764 5775 5778 5781 5785 5785 5790 5794 5782 5787 5790 5786 5791 5800 5798 5805 5809 5809 5811 5813 5813 5813 5814
5593 5601 5609 5618 5628 5638 5642 5646 5653 5657 5663 5672 5679 5686 5695 5703 5718 5730 5740 5743 5747 5752 5760 5765 5767 5775 5776 5778 5782 5781 5778 5786 5790 5792 5788 5795 5793 5791 5795 5801 5802 5804 5810 5811 5810
5579 5588 5596 5604 5615 5624 5634 5639 5644 5648 5654 5662 5670 5678 5688 5698 5711 5729 5733 5737 5741 5747 5757 5762 5766 5768 5767 5775 5776 5777 5773 5783 5784 5785 5789 5791 5789 5791 5787 5788 5802 5798 5806 5810 5806
5567 5575 5584 5592 5601 5611 5622 5629 5635 5640 5645 5651 5660 5668 5679 5692 5694 5724 5725 5730 5735 5742 5749 5752 5755 5754 5758 5759 5773 5761 5774 5773 5781 5780 5782 5783 5792 5782 5786 5795 5805 5807 5809 5809 5804
5554 5562 5571 5579 5588 5599 5609 5619 5626 5631 5637 5642 5649 5658 5673 5682 5699 5716 5718 5725 5731 5736 5740 5742 5744 5750 5748 5758 5760 5758 5768 5767 5775 5774 5777 5783 5780 5776 5787 5799 5804 5804 5801 5800 5803
5541 5551 5559 5566 5576 5586 5593 5606 5615 5622 5627 5632 5637 5646 5659 5666 5703 5705 5712 5719 5724 5728 5732 5738 5740 5747 5745 5747 5748 5758 5758 5764 5769 5771 5775 5767 5779 5772 5797 5806 5801 5798 5800 5804 5804
5530 5541 5549 5556 5564 5572 5581 5591 5600 5611 5616 5621 5625 5636 5649 5677 5692 5697 5703 5708 5713 5717 5721 5730 5736 5734 5743 5737 5744 5747 5744 5764 5768 5769 5767 5772 5765 5773 5795 5804 5794 5797 5799 5801 5802
5520 5528 5537 5545 5552 5560 5568 5577 5586 5597 5603 5607 5613 5624 5646 5676 5679 5690 5696 5700 5707 5712 5715 5723 5729 5728 5730 5734 5734 5735 5738 5747 5765 5762 5766 5764 5766 5790 5796 5792 5792 5794 5795 5793 5799
5512 5518 5525 5533 5540 5547 5555 5564 5571 5581 5588 5591 5599 5612 5639 5666 5670 5683 5689 5690 5700 5703 5709 5712 5717 5718 5721 5720 5723 5729 5738 5742 5751 5760 5762 5759 5767 5781 5783 5782 5779 5788 5793 5793 5794
5503 5510 5517 5522 5527 5533 5539 5548 5558 5560 5569 5571 5586 5596 5635 5661 5671 5678 5685 5684 5687 5691 5692 5697 5703 5706 5715 5718 5717 5734 5726 5741 5742 5752 5750 5756 5761 5773 5778 5779 5780 5788 5791 5791 5794
5494 5502 5507 5512 5514 5516 5519 5526 5541 5551 5568 5607 5616 5625 5642 5655 5659 5663 5673 5671 5675 5678 5678 5690 5688 5701 5719 5721 5733 5724 5727 5734 5753 5748 5728 5745 5760 5771 5776 5777 5781 5790 5792 5794 5797
5486 5496 5500 5501 5501 5500 5504 5525 5568 5571 5568 5583 5601 5609 5627 5636 5644 5655 5664 5660 5663 5669 5678 5673 5686 5715 5714 5717 5710 5713 5715 5729 5746 5743 5726 5744 5759 5769 5773 5776 5783 5793 5797 5800 5802
5483 5488 5492 5488 5487 5485 5511 5553 5546 5552 5553 5577 5588 5600 5609 5619 5633 5649 5655 5664 5664 5664 5678 5680 5707 5706 5699 5696 5695 5705 5707 5721 5724 5737 5735 5739 5751 5768 5783 5784 5791 5798 5802 5803 5801
5482 5483 5480 5475 5464 5490 5519 5534 5531 5529 5534 5559 5572 5591 5599 5610 5614 5647 5653 5655 5655 5667 5671 5670 5695 5686 5687 5689 5697 5695 5714 5709 5712 5709 5718 5725 5728 5763 5774 5778 5788 5796 5799 5799 5796
5481 5478 5475 5476 5484 5496 5541 5511 5509 5503 5530 5565 5583 5599 5606 5613 5639 5635 5646 5643 5652 5657 5660 5680 5676 5681 5676 5700 5697 5695 5703 5697 5701 5705 5705 5719 5705 5768 5764 5765 5781 5793 5798 5801 5795
5476 5473 5470 5464 5476 5514 5494 5491 5482 5482 5527 5563 5578 5588 5595 5610 5620 5627 5628 5640 5648 5646 5654 5672 5677 5679 5696 5696 5689 5690 5682 5682 5688 5693 5688 5726 5722 5746 5762 5766 5779 5789 5795 5793 5790
5467 5466 5465 5466 5505 5492 5481 5469 5457 5478 5529 5548 5565 5585 5612 5616 5611 5614 5613 5618 5629 5623 5640 5657 5662 5670 5679 5675 5677 5676 5676 5671 5667 5668 5702 5740 5732 5736 5761 5770 5773 5780 5781 5785 5782
5455 5454 5458 5475 5473 5464 5456 5444 5454 5502 5514 5560 5572 5578 5596 5620 5603 5613 5609 5610 5628 5650 5661 5646 5640 5661 5676 5683 5676 5678 5684 5691 5668 5690 5713 5713 5708 5743 5769 5771 5773 5775 5771 5773 5765
5432 5433 5438 5455 5448 5447 5440 5443 5456 5507 5535 5534 5566 5564 5582 5596 5614 5603 5610 5632 5651 5655 5645 5651 5657 5679 5672 5677 5682 5670 5671 5696 5676 5692 5677 5716 5740 5757 5748 5756 5756 5757 5759 5759 5757
5428 5424 5430 5435 5432 5433 5425 5436 5451 5502 5529 5541 5545 5567 5578 5597 5607 5601 5617 5646 5645 5656 5670 5665 5644 5662 5660 5664 5675 5676 5684 5647 5660 5650 5660 5713 5720 5731 5733 5738 5742 5744 5745 5749 5745
5421 5420 5430 5428 5425 5427 5430 5431 5461 5493 5509 5521 5539 5565 5580 5589 5608 5614 5634 5663 5654 5652 5655 5659 5651 5636 5647 5653 5661 5658 5660 5670 5676 5678 5673 5687 5713 5757 5746 5745 5739 5743 5746 5742 5732
5419 5418 5426 5433 5429 5420 5429 5430 5460 5492 5492 5494 5513 5550 5575 5584 5587 5600 5624 5647 5669 5662 5639 5662 5642 5626 5639 5654 5663 5670 5674 5673 5657 5668 5666 5681 5714 5741 5737 5738 5734 5730 5729 5729 5725
5414 5404 5420 5431 5432 5427 5434 5437 5453 5484 5492 5478 5492 5529 5563 5576 5572 5593 5616 5649 5650 5640 5640 5640 5624 5621 5622 5627 5642 5655 5675 5670 5671 5669 5664 5657 5700 5741 5722 5719 5717 5713 5714 5713 5711
5399 5413 5411 5420 5421 5428 5435 5452 5462 5476 5487 5490 5487 5517 5544 5561 5574 5590 5607 5618 5632 5642 5641 5635 5637 5637 5642 5672 5670 5636 5661 5669 5659 5632 5671 5672 5705 5712 5703 5704 5699 5701 5703 5705 5696
5400 5415 5430 5425 5417 5432 5445 5455 5460 5459 5470 5481 5484 5492 5512 5544 5564 5582 5603 5603 5612 5623 5612 5617 5617 5637 5660 5674 5657 5656 5654 5655 5643 5660 5651 5684 5684 5715 5713 5708 5701 5702 5698 5691 5681
5399 5406 5418 5440 5436 5435 5436 5441 5463 5465 5468 5472 5469 5497 5512 5528 5565 5586 5604 5605 5611 5608 5605 5615 5613 5626 5629 5644 5643 5639 5649 5650 5657 5668 5659 5675 5676 5712 5711 5697 5687 5687 5684 5677 5668
5398 5415 5437 5422 5433 5423 5432 5454 5467 5475 5475 5485 5493 5500 5517 5537 5575 5599 5604 5607 5615 5604 5602 5600 5605 5605 5602 5625 5618 5583 5629 5662 5657 5663 5663 5651 5694 5696 5691 5685 5676 5676 5672 5670 5666